Regional Weather Roundup
Issued by NWS

Home | Current Version | Previous Version | Text Only | Print | Product List | Glossary On
Versions: 1 2 3 4 5 6 7 8 9 10 11 12 13 14 15 16 17 18 19 20 21 22 23 24 25 26 27 28 29 30 31 32 33 34 35 36 37 38 39 40 41 42 43 44 45 46 47 48 49 50
000
ASUS43 KFSD 010710
RWRSD

WEATHER ROUNDUP FOR SOUTH DAKOTA
NATIONAL WEATHER SERVICE SIOUX FALLS SD
200 AM CDT SAT NOV 01 2014

NOTE: "FAIR" INDICATES FEW OR NO CLOUDS BELOW 12,000 FEET WITH NO
SIGNIFICANT WEATHER AND/OR OBSTRUCTIONS TO VISIBILITY.


SDZ001>005-009-010-012>017-010800-
NORTHWEST AND NORTH CENTRAL SOUTH DAKOTA

CITY           SKY/WX    TMP DP  RH WIND       PRES   REMARKS
BUFFALO          N/A     37  25  61 SE9       29.78F
FAITH            N/A     36  17  46 S28       29.90F
MOBRIDGE       PTCLDY    39  21  48 S28G38    30.03F
$$

SDZ012>016-024>037-041>051-057-063-072>074-010800-
SOUTHWEST AND SOUTH CENTRAL SOUTH DAKOTA

CITY           SKY/WX    TMP DP  RH WIND       PRES   REMARKS
RAPID CTY ARPT CLEAR     38  28  67 SE16      29.87F
PIERRE         PTCLDY    35  15  44 SE25G33   30.07F WCI  23
CUSTER         PTCLDY    36  26  67 W5        29.93F
ELLSWORTH AFB  CLEAR     41  28  60 S20       29.84F
PHILIP         CLEAR     39  19  44 S10       30.00F
PINE RIDGE     CLEAR     40  22  48 S32G45    29.95F
SPEARFISH      FAIR      39  30  70 S6        29.83F
WINNER         FAIR      36  14  40 S16G25    30.17F
$$

SDZ004>011-016>023-039-040-010800-
NORTHEAST SOUTH DAKOTA

CITY           SKY/WX    TMP DP  RH WIND       PRES   REMARKS
ABERDEEN       CLEAR     32  18  56 S20       30.24F WCI  20
WATERTOWN      CLEAR     26  17  68 SE15      30.30F WCI  14
SISSETON         N/A     25  18  74 S14       30.31F WCI  13
$$

SDZ017-020-022-023-036>040-048>070-010800-
SOUTHEAST SOUTH DAKOTA

CITY           SKY/WX    TMP DP  RH WIND       PRES   REMARKS
SIOUX FALLS    PTCLDY    30  17  58 SE12      30.39F WCI  20
HURON          MOCLDY    30  18  60 S17       30.28F WCI  18
CHAMBERLAIN    PTCLDY    33  16  49 SE17      30.20F WCI  22
MITCHELL       MOCLDY    32  19  58 SE15      30.33F WCI  22
YANKTON        MOCLDY    28  19  69 SE10      30.39S WCI  19
$$

ABBREVIATIONS USED IN REMARKS
   TC - TEMPERATURE IN CELSIUS
  WCI - WIND CHILL INDEX
   HX - HEAT INDEX
  VSB - VISIBILITY




USA.gov is the U.S. government's official web portal to all federal, state and local government web resources and services.